Flag for Sweden Weather past 2 weeks in Helsingborg, Sweden

Now
36 °F

Fog.


Feels Like: 36 °F
Forecast: 41 / 50 °F
Wind: No wind

Location: Ljungbyhed

Current Time: Apr 27, 2015 at 3:56:07 AM

Latest Report: Apr 27, 2015 at 3:20 AM


Visibility: 0 mi

Pressure: 29.71 "Hg

Humidity: 100%

Dew point: 36 °F

Location of HelsingborgLocation

Historic Weather in Helsingborg — Graph

°F

Helsingborg temperature yesterday

Maximum temperature yesterday: 52 °F (at 12:20 AM)
Minimum temperature yesterday: 36 °F (at 11:20 PM)
Average temperature yesterday: 46 °F

Past Weeks' High & Low Weather Summary

 TemperatureHumidityPressure
High66 °F (Apr 21, 1:50 PM)100% (Apr 13, 2:20 AM)30.30 "Hg (Apr 13, 2:20 AM)
Low28 °F (Apr 18, 2:20 AM)28% (Apr 21, 1:50 PM)29.62 "Hg (Apr 15, 4:50 PM)
Average46 °F77%29.98 "Hg
* Reported Apr 12 2:20 AM — Apr 27 2:20 AM, Helsingborg, Weather by CustomWeather, © 2015

Note: Actual official high and low records may vary slightly from our data, if they occured in-between our weather recording intervals... More about our weather records

Advertising

Helsingborg weather history for previous 24 hours

 ConditionsComfort  
Time TempWeatherWind HumidityBarometerVisibility
2:20 AM
Mon, Apr 27
36 °FFog.No wind100%29.71 "Hg1 mi
1:50 AM34 °FFog.No wind100%29.71 "Hg0 mi
1:20 AM36 °FFog.1 mph100%29.71 "Hg0 mi
12:50 AM36 °FChilly.No wind100%29.71 "Hg1 mi
12:20 AM36 °FFog.3 mph100%29.71 "Hg0 mi
11:50 PM
Sun, Apr 26
36 °FLight fog.3 mph100%29.71 "Hg0 mi
11:20 PM36 °FFog.2 mph100%29.71 "Hg1 mi
10:50 PM39 °FFog.3 mph93%29.71 "Hg2 mi
10:20 PM39 °FChilly.No wind100%29.71 "HgN/A
9:50 PM39 °FOvercast.1 mph100%29.71 "HgN/A
9:20 PM41 °FPartly sunny.2 mph93%29.71 "HgN/A
8:50 PM41 °FLight rain. Broken clouds.No wind93%29.71 "HgN/A
8:20 PM41 °FLight rain. Overcast.No wind93%29.71 "HgN/A
7:50 PM41 °FOvercast.1 mph93%29.71 "HgN/A
7:20 PM41 °FDrizzle. Broken clouds.No wind93%29.71 "HgN/A
6:50 PM41 °FRain. Partly sunny.1 mph87%29.71 "Hg5 mi
6:20 PM41 °FOvercast.8 mph87%29.71 "HgN/A
5:50 PM41 °FDrizzle. Overcast.7 mph87%29.71 "HgN/A
5:20 PM43 °FPartly sunny.13 mph81%29.71 "HgN/A
4:50 PM45 °FLight rain. Partly sunny.16 mph76%29.71 "HgN/A
4:20 PM46 °FLight rain. Overcast.12 mph82%29.71 "HgN/A
3:50 PM46 °FRain. More clouds than sun.10 mph82%29.71 "HgN/A
3:20 PM48 °FLight rain. Overcast.12 mph82%29.71 "HgN/A
2:50 PM48 °FOvercast.8 mph76%29.71 "HgN/A
2:20 PM48 °FOvercast.6 mph71%29.71 "HgN/A
1:50 PM48 °FOvercast.6 mph76%29.71 "HgN/A
1:20 PM48 °FMore clouds than sun.6 mph82%29.71 "HgN/A
12:50 PM46 °FOvercast.6 mph87%29.71 "HgN/A
12:20 PM46 °FMore clouds than sun.6 mph87%29.71 "HgN/A
11:50 AM45 °FLow clouds.3 mph93%29.71 "HgN/A
11:20 AM45 °FMore clouds than sun.5 mph93%29.71 "HgN/A
10:50 AM45 °FFog.13 mph100%29.71 "Hg3 mi
10:20 AM45 °FLight rain. Cloudy.10 mph100%29.68 "Hg1 mi
9:50 AM45 °FFog.12 mph100%29.68 "Hg1 mi
9:20 AM46 °FFog.13 mph93%29.68 "Hg3 mi
8:50 AM50 °FFog.8 mph94%29.68 "Hg5 mi
8:20 AM50 °FFog.7 mph94%29.65 "Hg4 mi
7:50 AM50 °FFog.7 mph88%29.65 "Hg4 mi
7:20 AM50 °FFog.7 mph88%29.65 "Hg4 mi
6:50 AM50 °FFog.6 mph88%29.65 "Hg4 mi
6:20 AM48 °FFog.5 mph94%29.65 "Hg3 mi
5:50 AM50 °FFog.5 mph88%29.65 "Hg4 mi
5:20 AM50 °FFog.7 mph88%29.65 "Hg4 mi
4:50 AM50 °FFog.7 mph94%29.65 "Hg4 mi
4:20 AM50 °FFog.8 mph94%29.65 "Hg4 mi
3:50 AM50 °FFog.8 mph94%29.62 "Hg4 mi
3:20 AM50 °FFog.5 mph94%29.62 "Hg4 mi
Weather by CustomWeather, © 2015

See weather overviewHow to use our weather pages